RH
57 58 59 59 60 60 62 65 70 75 79 76 72 68 64 63 62 62 62 64 66 68 70 70 70 70 69 71 74 78 82 84 86 88 88 89 90 90 90 90 90 90 90 89 89 89 89 90 90 91 92 93 96 99 100 99 99 100 100 100 100 100 100 100 100 100 100 100 100 100 100 100 100 100 100 100 100 100 100 100 99 99 99 100 100 99
56 57 58 59 59 61 65 70 76 78 77 71 67 64 62 61 62 63 64 66 68 69 71 71 71 70 70 70 73 77 82 83 85 88 89 90 90 90 90 90 90 89 88 88 88 89 89 89 89 90 93 95 98 100 100 100 100 100 99 99 98 98 99 99 100 100 100 100 100 100 100 100 100 100 100 100 100 100 100 100 99 99 98 99 99 99
56 58 58 59 60 65 71 76 78 75 70 65 62 61 60 60 62 64 66 68 69 70 71 71 71 70 70 70 73 77 81 83 86 88 89 90 90 90 90 90 89 89 88 88 88 87 88 88 88 90 93 97 99 99 100 100 99 99 98 97 96 96 97 98 99 99 100 100 100 100 100 100 100 100 100 100 100 100 100 100 100 100 99 98 99 100
59 60 60 61 64 70 76 78 74 68 63 60 59 59 59 61 63 65 67 68 70 70 71 70 70 70 70 71 72 76 80 84 86 88 89 90 90 89 90 89 89 89 89 87 86 86 87 88 89 91 94 96 97 98 99 99 98 96 96 95 95 95 96 97 98 99 99 99 99 99 99 99 98 98 99 99 99 99 100 100 100 100 100 98 99 100
62 63 63 66 71 76 78 74 68 62 59 58 58 59 60 62 64 66 67 69 69 70 70 69 69 69 70 71 72 74 80 83 85 87 88 88 88 89 90 89 89 89 89 88 87 88 89 89 91 93 94 95 96 96 97 97 96 96 96 96 96 96 96 97 98 99 99 99 99 99 99 97 95 94 97 95 95 95 99 99 100 100 100 99 99 100
67 68 69 74 77 78 75 68 62 59 57 57 58 59 61 63 64 66 68 68 69 69 69 69 69 69 70 71 72 75 80 82 83 84 85 85 87 88 89 90 89 89 89 89 89 90 91 91 92 93 94 95 95 95 95 95 96 96 95 95 96 96 96 97 97 98 98 99 99 99 99 96 93 92 96 94 91 90 94 96 98 99 99 99 99 100
72 73 76 80 80 76 68 62 59 57 57 58 59 60 62 63 65 66 67 68 68 68 68 68 68 69 70 70 72 74 77 78 79 80 81 83 85 87 88 89 89 89 90 91 91 91 91 92 93 94 94 94 94 94 94 94 95 95 95 96 97 97 97 96 96 97 98 98 98 98 98 97 94 93 95 94 88 84 87 91 95 96 97 99 100 100
77 78 80 79 75 68 62 59 57 57 57 59 61 62 63 64 65 66 66 67 67 67 67 68 69 69 70 71 71 72 73 74 75 76 78 81 83 85 87 88 89 89 90 90 91 90 90 92 93 93 94 94 94 94 94 94 95 95 95 97 98 98 97 95 94 95 96 97 98 98 98 98 96 95 96 91 84 78 81 86 91 94 97 99 100 100
83 83 81 74 68 62 58 57 57 57 59 61 63 65 66 67 66 66 66 66 66 66 67 68 69 70 71 71 71 71 72 74 76 77 79 81 82 83 85 86 88 88 89 89 89 89 90 91 92 93 93 93 94 95 95 94 94 94 95 97 98 98 98 96 94 93 94 96 98 98 97 96 96 96 95 88 79 74 76 81 85 90 95 97 99 99
85 82 75 67 62 59 57 58 59 60 62 65 67 69 70 70 68 67 66 66 66 66 67 68 69 70 70 71 71 72 73 75 76 78 80 81 81 82 83 85 85 86 87 87 88 89 89 89 89 89 89 91 92 93 94 93 94 94 95 97 97 98 98 97 96 95 95 96 97 97 95 92 91 92 93 85 77 71 70 74 79 85 90 93 96 98
81 73 65 60 58 57 58 61 63 65 67 68 69 69 69 68 67 67 67 67 67 67 68 68 69 70 70 71 71 72 73 74 75 75 75 75 76 78 80 81 83 83 83 84 85 85 82 79 78 78 81 85 89 92 93 93 94 95 96 97 98 99 99 99 99 98 98 98 98 97 94 91 92 93 92 85 76 69 65 68 74 79 85 89 92 95
71 63 58 57 58 60 63 66 68 69 69 69 68 67 65 65 65 67 68 68 68 68 68 68 69 69 70 71 72 72 73 73 73 73 71 70 70 72 74 76 77 77 78 79 78 75 72 71 71 72 74 78 82 87 93 94 94 95 97 98 99 99 99 99 99 99 99 99 98 97 94 92 93 94 92 86 77 68 62 64 68 73 79 84 88 92
61 56 55 57 60 64 68 69 69 68 68 68 68 67 66 66 67 68 71 70 70 69 69 68 68 69 69 70 70 71 71 72 72 71 69 69 70 71 73 75 77 78 78 77 75 71 68 69 70 71 72 72 74 77 85 90 93 95 98 99 100 100 100 100 99 99 99 99 98 98 96 93 94 96 94 89 80 70 62 61 63 67 72 78 83 88
59 58 59 62 65 67 67 67 67 67 68 68 68 69 69 69 69 70 71 70 69 68 68 68 69 69 69 69 68 68 68 68 68 69 69 70 71 73 75 77 78 79 80 78 75 71 68 70 71 69 68 68 69 70 75 82 88 94 98 99 100 100 100 100 100 100 99 99 99 99 98 96 96 97 98 93 86 76 67 61 60 61 66 71 77 82
64 65 67 68 68 67 65 66 67 68 70 70 70 71 71 71 71 70 70 69 68 68 69 69 70 69 68 67 66 66 65 66 68 70 71 71 73 74 77 78 79 80 79 78 75 71 68 70 70 69 68 70 74 79 84 90 94 97 99 100 100 100 100 100 100 100 100 100 99 99 99 98 98 98 99 97 93 85 74 65 60 59 61 65 70 76
70 72 73 71 69 67 66 67 68 70 71 72 72 73 72 72 71 70 69 70 70 71 72 71 70 68 66 64 63 63 63 66 68 70 71 73 75 76 78 79 80 79 78 76 74 71 69 71 72 72 72 76 84 92 95 97 98 99 99 100 100 100 100 100 100 100 100 100 100 100 100 99 99 99 99 99 97 91 82 71 63 58 57 60 64 68
75 75 74 73 71 69 67 68 70 72 73 73 74 74 73 74 73 73 73 73 73 73 72 71 71 69 66 63 62 62 63 66 69 72 74 77 78 79 79 79 79 78 76 74 73 72 71 72 73 74 76 83 90 94 96 98 98 98 99 99 99 100 100 100 99 99 99 99 99 99 99 99 99 99 99 99 96 91 84 74 65 59 55 56 58 62
75 74 73 73 72 71 69 71 73 74 75 75 74 74 75 76 77 77 76 76 75 74 73 71 70 70 69 67 64 63 65 70 76 80 81 81 80 79 78 77 77 76 75 74 73 72 73 73 74 76 79 88 92 94 97 97 97 97 98 98 98 99 99 99 99 98 98 98 99 98 98 97 96 95 95 94 92 88 84 76 67 60 55 54 54 57
78 76 76 75 74 73 73 75 77 78 78 77 77 77 76 77 78 79 80 78 76 76 74 74 72 71 70 69 68 69 74 82 88 90 86 82 78 76 75 75 75 75 74 73 73 73 73 73 75 77 83 88 91 93 94 95 96 96 97 98 98 99 99 99 99 99 98 97 97 97 96 93 90 88 86 85 85 84 81 76 68 60 55 53 52 53
81 79 79 78 78 78 79 78 77 78 80 80 81 81 81 82 81 81 81 79 78 77 77 77 76 75 73 73 75 78 85 91 92 88 82 77 74 73 73 73 73 73 73 73 72 73 73 74 74 75 78 83 87 91 94 95 96 97 98 98 98 99 99 99 99 99 98 96 94 93 93 89 86 83 81 80 80 79 78 73 67 60 55 52 51 51
85 83 83 85 85 85 83 79 79 81 84 86 88 89 85 84 83 82 82 80 80 80 81 81 79 78 77 80 83 86 90 88 85 81 76 73 72 72 72 72 72 72 73 73 74 74 74 74 74 75 77 81 85 90 95 95 96 97 97 97 98 98 98 98 98 98 96 93 90 88 87 85 83 80 78 78 78 77 75 70 65 59 54 52 51 51
84 85 86 89 89 87 81 81 82 84 86 91 93 92 89 87 85 83 81 82 82 83 83 83 84 86 89 91 89 85 80 77 76 76 75 74 73 72 71 70 70 72 73 74 75 75 75 76 76 77 80 85 91 94 95 95 95 95 96 96 96 96 96 95 95 95 94 89 86 83 82 81 79 77 74 74 75 74 72 68 63 58 54 52 51 51
86 90 92 92 91 88 85 86 88 90 90 92 93 93 93 92 91 89 87 88 89 90 91 92 90 88 85 80 76 74 74 74 75 76 75 74 72 70 69 70 71 73 75 76 76 76 76 77 78 80 82 86 88 90 90 89 90 91 92 92 93 94 95 93 93 93 92 88 84 80 78 77 76 74 71 69 69 68 68 65 62 58 55 53 51 51
92 93 92 87 83 79 79 85 90 93 93 92 92 93 93 93 92 91 90 90 90 88 85 82 81 79 77 76 75 74 73 72 72 72 72 71 71 70 71 72 73 75 76 76 76 77 77 79 81 83 83 83 82 80 80 81 84 87 90 93 95 96 96 95 94 93 92 88 84 79 75 74 73 71 68 65 63 62 61 61 60 59 57 55 53 51
89 86 82 77 73 71 73 80 85 89 90 91 92 92 92 92 91 90 90 88 86 85 83 84 82 78 73 71 69 69 68 68 68 69 71 71 71 71 71 73 74 75 76 76 76 77 79 81 83 83 82 78 75 74 75 80 86 90 93 96 97 97 96 95 95 96 97 97 94 91 87 83 80 76 71 65 60 57 56 57 58 58 58 57 56 54
87 85 82 78 74 71 71 74 78 82 86 90 92 93 94 93 93 92 90 88 87 85 85 83 79 75 71 69 68 68 67 68 68 70 73 74 74 73 72 73 74 75 75 75 76 78 81 82 83 81 79 75 73 73 75 80 86 91 95 97 97 98 98 98 99 100 100 100 100 100 99 98 95 91 84 72 63 57 54 55 56 58 59 60 60 59
88 85 81 78 76 74 73 74 76 79 82 86 89 91 93 93 92 91 89 88 89 88 84 81 77 74 71 69 68 68 67 68 70 72 74 76 76 75 73 73 73 74 75 76 77 79 81 82 82 80 77 73 72 72 75 79 86 92 96 98 98 98 97 98 99 99 99 99 99 99 99 99 99 98 96 83 71 61 55 54 55 57 60 63 65 65
82 79 76 72 73 74 74 73 74 76 80 83 86 88 92 91 91 90 87 88 89 88 84 80 77 75 73 70 68 68 68 69 70 71 73 76 76 75 73 73 75 76 77 77 77 77 78 79 78 76 74 72 72 74 77 82 89 95 95 92 89 86 86 89 91 93 94 95 96 97 97 97 97 97 98 91 79 68 59 56 56 58 62 66 68 68
68 63 59 56 58 63 67 66 68 71 76 81 85 88 90 91 91 90 90 91 90 88 85 81 78 76 74 72 70 69 68 68 68 69 71 75 76 75 74 75 76 78 78 76 75 75 75 75 74 73 72 72 74 77 79 82 85 87 82 76 73 72 74 76 78 80 82 84 87 88 90 90 90 91 93 92 85 75 64 60 60 62 66 69 71 71
68 64 59 54 54 55 58 57 60 66 73 79 84 87 89 91 91 91 92 92 91 90 87 83 80 78 76 74 72 69 67 65 65 67 71 76 77 76 74 75 76 76 76 76 75 74 72 72 72 72 73 74 76 78 79 79 78 76 74 74 75 76 76 76 77 78 79 79 80 81 83 82 82 83 86 89 86 79 70 66 66 69 73 75 76 74
83 80 76 69 64 61 59 60 61 65 69 75 80 84 87 89 90 91 92 91 91 91 89 85 83 81 78 76 73 70 67 63 63 66 72 77 77 76 75 76 75 76 77 78 78 76 73 72 72 73 74 76 78 79 79 79 79 79 79 79 79 78 78 81 84 87 89 89 90 90 91 88 86 84 84 84 83 79 73 70 72 76 81 83 83 80
89 87 84 79 73 68 65 64 64 65 68 72 77 82 85 88 90 92 92 91 91 91 91 89 86 84 82 79 76 73 70 67 67 69 73 77 78 78 77 77 78 78 80 81 81 80 77 76 75 74 76 78 80 80 81 80 80 81 81 81 81 80 79 83 88 93 95 95 97 99 99 98 96 94 90 87 82 77 73 72 75 80 85 88 88 85
89 88 85 81 76 72 69 67 66 67 69 74 78 81 85 87 90 91 92 92 91 91 91 91 89 87 85 82 80 77 74 72 72 74 77 81 82 82 80 80 80 81 82 84 85 84 80 78 76 76 77 78 80 81 81 80 80 80 81 81 81 80 79 82 85 88 89 89 88 89 91 94 95 95 94 91 85 78 72 72 75 79 85 88 89 87
88 86 84 81 77 74 72 70 69 69 70 74 77 81 85 87 89 90 91 92 92 91 91 91 90 89 87 85 82 79 76 75 75 77 81 85 86 85 83 82 82 83 84 83 84 83 80 78 76 76 76 77 78 79 80 80 79 79 80 80 81 80 80 80 81 83 82 82 81 80 80 83 85 87 89 88 84 79 72 70 72 76 81 84 86 86
87 85 83 81 79 77 75 73 72 71 71 73 75 78 82 85 88 90 91 92 92 92 92 91 91 91 90 88 85 82 80 78 79 81 85 88 89 88 85 84 83 83 84 82 81 81 78 76 75 75 75 76 77 78 79 79 79 79 79 79 80 80 79 79 80 80 80 81 81 81 80 80 81 82 85 85 81 76 70 67 68 71 75 77 78 81
86 84 82 81 80 79 78 76 75 73 72 71 72 74 78 82 86 89 91 92 92 92 92 92 92 92 92 91 90 88 87 86 87 88 90 91 91 90 86 84 83 83 84 82 81 80 78 76 75 75 76 76 77 77 77 78 78 78 79 79 80 80 79 79 80 81 82 83 85 86 86 85 84 85 88 88 85 79 71 67 65 67 70 71 71 73
85 82 81 81 81 81 81 79 77 75 73 72 72 73 76 80 84 88 91 91 92 92 92 92 92 92 92 92 92 92 92 92 92 92 92 92 92 91 90 87 85 85 86 85 83 80 78 77 76 75 75 75 76 76 77 78 79 80 81 81 82 82 81 80 81 82 85 87 89 91 93 91 89 88 91 93 94 92 84 76 70 68 68 69 68 68
83 82 81 82 82 83 82 81 80 78 76 75 74 73 75 78 82 85 90 91 91 92 92 92 92 92 92 92 93 93 93 93 93 93 93 91 91 91 91 91 89 87 88 88 86 84 82 81 79 77 76 75 75 76 77 79 81 82 83 83 83 84 84 83 84 86 90 93 95 97 97 96 95 94 93 95 98 98 96 90 83 76 75 75 74 72
84 83 82 83 84 84 84 84 83 82 80 77 75 74 74 76 80 84 87 89 90 91 91 91 92 92 91 91 92 92 93 93 93 93 93 92 91 91 90 92 92 91 91 91 90 89 87 84 81 79 77 76 76 77 78 80 81 83 84 85 85 85 85 87 88 91 92 96 97 98 99 99 99 99 98 98 99 100 100 99 94 90 87 90 90 88
85 84 84 84 85 86 87 86 86 84 82 78 75 72 71 74 77 81 85 87 89 89 90 90 90 91 91 92 92 92 92 91 91 92 92 92 92 91 90 91 92 93 93 92 93 92 91 87 84 81 78 78 78 79 80 80 82 83 85 86 86 85 85 86 87 88 88 91 93 96 98 99 100 100 100 100 100 100 100 100 99 97 95 97 98 99
86 85 85 85 86 87 88 88 87 85 82 77 73 69 68 71 76 80 85 87 88 89 88 89 89 90 90 90 90 90 90 89 88 88 88 89 91 92 91 91 92 93 93 93 93 93 93 91 88 84 82 81 81 81 81 82 82 84 85 86 86 86 87 88 88 89 89 89 90 92 95 98 99 100 100 100 100 100 100 100 100 99 98 98 97 97
86 86 86 87 88 89 90 89 87 85 81 76 71 68 67 69 74 80 85 87 88 88 88 88 89 89 88 89 89 88 87 86 85 85 85 85 88 91 92 92 92 92 91 92 93 93 93 91 89 87 85 84 83 82 81 82 83 84 85 86 87 87 89 89 89 90 91 92 93 95 98 98 99 100 100 100 100 100 100 100 100 99 99 98 96 94
88 88 88 88 89 90 90 88 86 84 80 76 72 68 66 68 72 78 84 87 88 88 88 89 89 89 88 87 86 85 85 83 83 83 84 85 87 89 92 92 92 92 91 92 93 93 93 91 91 90 87 86 85 85 83 83 83 84 86 87 87 88 88 87 87 88 90 92 94 96 98 99 99 100 100 100 100 100 99 100 100 100 99 98 96 94
90 90 89 90 90 89 88 88 86 84 81 77 73 68 65 66 70 75 82 85 87 87 87 88 88 88 87 85 83 82 82 82 82 83 83 84 86 88 91 93 93 93 92 91 92 93 93 91 90 90 88 89 89 88 85 84 84 84 85 86 88 89 88 87 87 88 89 90 92 94 96 98 99 100 100 100 100 100 99 100 100 100 100 98 97 95
91 90 90 89 89 89 88 88 86 85 83 78 73 68 65 65 68 73 78 82 85 86 87 88 87 86 84 82 81 81 81 81 82 82 83 84 87 91 93 93 94 93 93 93 93 93 92 92 90 89 89 90 90 89 86 85 84 84 85 86 88 90 90 90 91 91 92 93 94 95 96 96 98 99 100 100 100 100 100 100 100 100 99 100 99 97
91 90 89 89 89 89 88 87 87 85 83 78 73 69 66 66 68 70 75 79 83 85 86 87 87 86 83 81 81 81 81 81 82 83 84 85 86 88 90 92 93 93 93 94 94 93 93 93 93 92 91 91 90 88 87 86 86 85 85 86 88 89 90 91 92 93 94 94 95 96 97 97 98 99 99 99 99 99 100 99 99 99 98 99 100 99
90 90 90 91 91 90 89 87 86 85 83 79 74 70 68 67 68 69 72 76 80 83 85 86 85 85 83 82 81 82 82 82 83 83 85 86 87 88 89 90 91 93 94 93 94 94 94 94 94 94 93 91 89 87 86 87 87 87 86 87 87 88 89 90 92 93 94 95 95 96 97 97 98 99 99 99 98 98 98 97 96 96 97 99 100 99
90 91 92 92 92 91 89 88 87 86 84 80 76 71 69 68 68 69 70 73 76 80 83 84 84 83 82 81 81 82 83 84 84 85 86 86 87 87 88 89 90 92 93 93 94 94 94 94 94 93 93 92 89 86 85 86 87 88 88 88 89 89 90 90 92 93 94 95 96 97 97 98 98 98 98 98 97 95 93 93 91 92 94 98 99 99
91 92 93 93 92 91 89 89 88 87 85 82 78 73 70 68 68 68 68 71 74 78 81 83 84 83 82 81 81 82 83 84 85 85 86 86 87 87 88 89 91 92 92 93 93 93 94 94 94 94 94 94 92 90 88 88 88 89 89 90 90 90 90 90 91 93 95 96 97 97 97 98 98 98 99 97 94 92 89 88 86 86 89 95 98 99
91 92 92 92 92 91 90 90 89 89 87 84 80 76 71 67 66 66 67 69 72 75 78 81 83 84 83 82 82 82 83 84 85 85 86 86 87 88 90 90 91 92 91 91 90 89 89 90 91 92 93 94 94 94 92 91 91 91 91 91 91 91 91 91 92 93 95 96 97 97 98 99 99 99 99 98 95 91 88 86 84 82 82 91 96 99
91 91 92 92 92 92 92 91 91 90 89 86 82 77 71 68 66 66 66 68 69 71 74 78 81 83 84 83 83 83 84 84 85 86 86 87 88 90 91 91 91 91 89 87 85 83 82 82 81 82 86 91 94 95 94 94 93 92 91 91 92 92 92 93 93 94 95 96 98 98 99 99 99 99 99 98 95 91 87 85 82 79 77 85 93 98
Wind_Speed
27 28 29 29 29 29 29 28 25 24 24 25 26 28 30 30 30 31 31 30 29 29 29 28 29 29 30 30 30 30 30 30 30 30 29 29 29 28 28 27 26 24 23 22 21 21 20 19 18 18 17 18 18 18 18 18 19 18 18 17 17 16 16 16 16 15 15 15 14 14 14 14 14 15 14 11 8 5 3 3 7 10 10 8 8 10
27 28 28 28 28 28 27 25 23 22 23 26 28 29 30 31 31 31 30 29 27 26 26 27 27 28 29 30 29 29 29 29 29 28 28 28 28 28 28 27 26 25 24 23 22 22 21 20 18 18 17 17 17 17 17 18 18 18 18 17 17 17 17 17 16 16 16 16 15 15 15 14 14 15 15 12 9 5 3 2 5 8 9 9 8 9
27 27 28 27 26 25 24 23 22 22 24 27 28 29 30 31 30 29 28 27 26 26 26 26 26 27 28 28 28 28 28 28 27 27 27 27 27 27 27 26 26 25 24 23 23 23 22 21 19 18 17 17 17 17 17 17 18 18 18 17 17 17 17 17 17 17 17 17 16 16 16 15 15 15 16 14 10 6 3 2 3 4 6 9 9 9
26 26 27 26 24 23 21 22 23 25 26 27 27 28 28 28 28 27 27 26 27 27 27 26 26 26 27 27 28 27 26 26 26 26 27 27 26 26 25 25 24 24 23 23 23 23 23 22 21 20 19 18 18 18 18 18 18 18 18 18 18 18 18 18 18 18 18 17 17 17 16 16 15 15 16 14 11 7 5 4 3 3 4 8 9 8
26 25 25 24 23 22 22 23 24 26 26 26 26 26 26 26 26 26 26 26 26 26 26 26 26 26 26 27 27 26 25 25 25 26 26 26 25 25 24 23 22 22 22 22 22 22 22 23 22 21 20 19 19 19 19 18 18 18 19 19 19 19 19 19 18 18 18 17 17 17 17 16 15 15 16 15 12 9 7 5 4 4 4 6 7 7
26 24 24 22 21 21 23 25 25 25 25 25 25 25 24 25 25 25 24 25 25 25 26 26 26 26 25 26 25 24 24 24 24 25 25 24 24 23 22 21 21 20 20 20 21 21 22 22 23 23 22 21 20 20 19 19 18 18 19 19 19 19 19 19 19 19 18 18 17 17 16 16 15 15 16 15 13 11 8 6 5 5 5 6 7 7
25 24 22 21 21 23 25 25 25 24 23 23 24 25 24 24 23 23 24 24 25 25 25 25 25 25 24 24 24 23 24 24 24 24 24 23 22 21 20 20 19 19 19 19 20 20 21 22 23 24 23 23 22 21 20 20 19 18 18 18 19 19 19 19 19 19 19 18 17 17 16 15 15 15 16 16 14 12 9 7 6 6 6 6 6 7
23 23 22 21 23 25 26 25 24 23 22 22 23 24 24 24 23 23 23 24 23 23 24 24 24 24 23 23 23 24 24 24 24 24 23 22 21 20 20 19 19 19 19 19 20 20 21 22 23 23 23 23 22 22 21 20 19 19 18 18 18 18 18 18 19 19 19 18 18 17 16 15 15 15 16 15 14 12 9 8 7 7 7 7 7 7
21 21 22 23 24 24 25 25 24 23 22 21 21 22 23 23 23 23 23 22 21 21 21 22 23 23 23 22 23 23 23 23 22 22 22 21 21 20 20 19 19 19 19 19 20 21 21 22 22 22 23 23 22 22 21 21 20 19 18 18 17 17 17 17 18 18 18 18 18 17 17 16 15 15 15 15 14 12 10 9 9 9 8 8 8 8
20 20 22 24 24 23 23 24 25 24 22 20 20 20 19 20 21 22 22 22 21 20 20 21 22 23 23 23 23 22 22 21 21 20 20 19 19 19 19 19 19 19 19 20 20 20 20 21 21 21 21 21 21 21 21 20 20 19 18 17 17 16 16 16 16 16 16 17 17 17 17 16 16 16 15 15 13 12 11 10 10 10 10 10 10 9
19 21 22 23 24 23 23 23 23 22 21 20 19 18 17 17 18 18 19 21 22 22 21 20 21 21 22 23 23 22 21 21 22 21 20 19 19 19 19 18 19 19 20 20 20 20 20 20 20 20 20 20 20 20 19 19 19 19 18 17 16 16 16 15 15 15 15 15 16 16 16 16 16 15 15 15 14 12 11 10 10 11 12 12 11 11
18 20 21 22 23 23 23 22 21 20 19 18 17 17 17 17 17 17 18 20 21 22 22 22 21 21 21 22 23 23 22 22 22 22 21 21 20 19 19 19 20 21 21 22 22 22 22 22 22 21 20 20 19 18 18 18 18 18 17 16 16 15 15 15 14 14 14 14 15 15 15 15 15 15 15 14 14 13 12 11 11 12 12 13 13 12
20 21 22 22 22 22 21 20 20 19 18 17 15 15 16 18 18 17 18 20 21 21 22 22 22 21 21 21 22 22 22 21 21 21 21 20 19 19 19 20 21 22 23 23 24 25 25 24 23 22 21 20 19 17 17 17 17 17 16 15 15 14 14 14 13 13 13 13 14 14 14 14 14 15 15 14 14 13 13 13 12 13 13 13 14 13
20 21 22 21 20 20 19 19 19 18 18 17 17 17 18 19 18 18 19 20 21 21 22 22 22 22 21 20 20 20 20 20 20 20 19 18 18 18 18 19 21 22 22 23 25 26 26 25 24 23 22 20 18 16 14 14 14 14 14 14 13 13 13 13 13 13 13 13 13 13 13 13 14 14 14 14 13 13 13 14 14 14 14 14 14 14
19 19 17 16 17 18 19 19 19 18 18 19 19 19 19 19 19 19 19 19 20 21 21 21 21 21 19 18 17 17 17 18 18 17 17 17 17 17 17 18 20 21 22 23 25 27 27 25 24 24 23 20 16 13 11 11 12 12 12 12 12 13 13 13 13 13 13 14 14 14 13 13 14 14 14 13 13 13 14 14 15 15 15 15 15 15
18 17 15 14 16 19 20 20 19 19 20 20 20 19 19 19 19 19 19 19 19 19 18 17 16 16 16 16 15 14 14 15 15 16 16 17 16 15 15 17 19 22 23 24 25 27 27 25 23 22 21 18 15 12 11 11 12 12 13 13 13 14 14 14 14 14 15 15 15 15 14 14 14 14 13 13 13 13 14 15 15 16 16 16 15 15
17 16 16 16 17 19 22 22 21 21 21 21 20 20 20 19 20 20 19 19 18 17 15 13 9 6 9 14 15 14 13 14 15 15 16 16 16 15 15 16 19 22 25 26 26 26 25 24 22 21 19 17 15 13 13 13 13 14 14 15 15 16 16 16 16 16 16 16 16 16 15 15 15 14 14 13 14 14 14 15 16 16 16 16 16 16
18 18 18 17 18 20 22 22 22 21 21 20 21 21 20 20 19 19 19 18 17 16 15 14 10 6 4 8 12 15 13 13 14 14 15 16 16 16 16 17 19 22 24 26 26 25 24 23 22 21 19 17 16 16 16 16 16 17 17 17 17 17 17 17 17 17 17 17 17 16 16 16 15 15 15 15 15 15 16 16 17 17 17 17 17 17
18 19 19 19 20 22 23 22 21 21 20 20 21 21 21 20 20 19 18 18 18 17 16 14 13 12 10 12 14 15 12 11 12 13 15 16 18 19 18 18 19 21 23 24 24 24 23 22 22 21 19 18 18 19 18 18 18 17 17 17 17 17 17 17 17 18 18 18 17 17 16 16 16 16 16 17 17 17 17 17 17 18 18 18 18 18
19 20 20 20 21 22 22 23 23 23 22 23 23 23 22 21 20 19 18 19 19 19 18 15 14 14 15 15 14 13 11 10 11 13 16 18 21 21 19 17 18 20 22 23 23 22 22 23 23 23 21 20 19 18 18 17 17 17 17 17 17 17 17 17 18 18 18 18 18 17 17 17 17 17 18 18 19 19 19 18 18 19 19 19 19 19
20 21 21 21 20 20 21 24 25 25 25 25 24 23 22 21 19 18 18 18 18 18 17 15 14 14 14 13 12 12 12 13 14 15 17 20 21 20 18 16 17 19 21 22 22 22 22 23 23 23 22 20 19 17 17 17 17 17 17 17 18 18 18 18 18 18 19 19 19 18 18 18 18 19 19 20 20 20 20 20 20 20 20 20 20 20
21 22 23 23 22 23 25 27 28 29 28 27 25 22 21 19 19 19 19 18 17 15 14 13 13 13 13 13 15 17 18 17 15 15 16 16 18 20 17 15 16 18 20 21 21 21 21 22 23 23 21 19 18 17 17 18 18 18 18 18 18 18 18 18 18 18 19 19 19 19 19 19 19 20 21 21 22 22 21 21 21 20 20 20 20 20
23 23 23 23 23 24 26 27 28 29 28 25 23 21 20 19 19 18 17 15 13 12 13 14 16 17 18 20 21 21 19 17 15 14 13 10 13 18 17 15 15 17 19 20 20 20 21 21 22 22 21 20 19 19 19 19 19 19 18 18 18 18 18 18 18 18 18 19 19 19 20 20 20 21 22 22 22 22 22 22 21 21 21 21 21 21
22 22 22 23 24 25 26 26 26 26 25 23 22 21 21 20 19 18 17 17 17 19 21 23 22 21 20 19 18 17 16 14 13 13 12 11 14 17 17 16 16 17 19 19 19 20 20 20 21 21 22 22 22 22 20 19 18 17 17 17 17 17 17 17 17 17 17 17 18 19 19 20 21 21 22 22 23 23 22 22 22 22 22 22 22 22
23 24 24 25 25 26 26 26 27 27 26 26 25 24 23 23 23 23 23 23 22 21 20 18 16 15 17 17 17 16 16 15 14 14 13 12 14 17 17 16 16 17 18 19 19 19 19 20 22 24 25 25 24 22 19 17 16 15 15 15 15 15 15 15 15 15 15 16 16 17 18 19 20 21 22 22 22 22 23 22 22 22 22 22 22 22
24 24 24 25 25 25 26 26 27 27 27 26 25 25 25 24 23 22 21 18 16 14 13 11 10 11 15 16 16 16 16 15 13 13 13 12 13 16 17 16 15 16 18 19 18 17 18 21 23 25 26 25 23 19 16 14 12 12 12 12 13 13 13 13 13 14 14 15 15 16 17 18 19 20 20 21 22 22 22 22 22 22 22 22 22 23
24 24 24 24 24 24 24 24 25 25 26 25 24 24 24 23 21 18 15 12 11 10 10 7 6 9 12 12 13 14 14 13 12 12 13 12 13 14 16 15 15 15 17 18 18 18 19 20 22 24 24 23 20 16 12 10 9 10 10 10 11 11 12 13 14 14 15 16 16 17 17 18 18 19 19 20 21 21 22 22 22 22 22 22 22 22
22 22 22 22 22 22 22 22 23 24 24 24 24 23 23 21 18 15 13 12 12 12 11 8 6 6 6 7 11 14 15 14 13 13 13 13 12 12 14 14 14 14 16 17 19 20 19 20 21 23 22 19 16 12 10 9 9 10 11 11 12 12 13 14 15 16 17 18 18 19 19 19 19 19 19 20 20 21 21 22 22 22 22 22 22 22
21 21 21 21 20 20 21 22 22 23 23 23 23 22 21 20 17 15 15 15 14 13 11 10 9 7 6 10 13 15 15 14 14 13 13 11 11 11 13 12 12 13 14 16 18 19 17 18 18 18 17 14 12 10 10 11 12 14 15 15 14 13 12 12 13 15 16 18 19 20 20 21 21 21 20 20 20 21 21 21 21 21 21 22 22 22
23 22 22 22 21 21 22 23 23 23 22 22 22 21 20 19 18 18 18 17 15 13 12 12 11 10 10 10 10 9 10 11 10 9 8 8 8 9 11 11 12 13 13 13 11 11 12 13 13 12 11 10 11 12 13 15 17 18 18 16 14 11 10 9 9 10 12 14 16 17 19 20 21 22 22 21 21 21 22 22 21 21 21 22 22 22
24 23 23 23 23 23 23 23 24 23 23 22 21 20 19 19 19 19 19 17 16 14 13 12 12 12 11 6 4 3 3 8 9 7 7 7 8 10 12 12 13 14 12 10 5 4 7 8 9 10 10 12 14 16 18 19 19 18 17 16 14 12 10 8 7 7 8 9 11 13 15 17 19 20 22 22 22 23 23 22 22 22 22 22 22 22
22 22 22 23 23 23 23 23 24 24 24 23 22 21 20 19 18 18 18 17 17 16 15 14 14 13 13 10 7 5 5 11 13 12 11 10 11 13 14 13 13 13 12 11 8 5 5 3 8 14 16 16 18 19 19 19 18 16 15 14 14 14 12 9 7 7 7 8 9 10 12 14 16 18 20 21 23 23 24 23 23 23 23 22 23 23
21 21 21 22 22 23 23 23 23 23 23 23 22 22 21 20 18 18 17 18 17 17 16 15 15 14 14 14 13 13 14 16 16 15 13 13 12 12 13 13 12 12 12 11 12 10 8 7 11 17 19 19 18 18 18 18 17 15 14 14 14 14 13 12 11 10 10 10 10 11 12 14 16 18 19 20 22 23 24 24 24 24 24 24 24 23
21 21 21 21 22 22 23 23 23 23 22 22 21 21 20 20 19 19 19 18 18 18 18 17 16 15 14 13 14 15 17 17 16 14 13 13 12 12 12 13 12 12 11 10 11 11 11 13 15 16 17 19 19 18 17 16 15 15 14 13 14 15 15 15 14 15 15 14 14 13 12 14 16 18 19 21 22 23 24 24 25 25 25 26 25 24
21 21 21 20 21 21 21 22 22 22 21 21 20 20 20 20 20 20 20 19 19 19 19 19 18 17 16 15 14 14 16 17 16 14 13 14 13 13 14 13 13 12 11 10 10 9 9 13 15 15 14 16 18 18 16 14 14 14 14 14 15 16 17 17 17 17 17 16 15 14 13 13 14 16 18 20 22 23 24 25 25 26 26 27 27 26
20 20 20 20 20 20 20 20 20 21 20 21 21 21 21 21 21 21 21 20 20 20 20 20 20 20 20 19 18 18 18 19 18 17 15 16 16 15 14 14 13 13 11 11 11 10 9 11 14 15 14 12 12 15 16 14 14 14 15 17 17 18 19 19 19 18 17 16 16 14 13 12 13 14 15 17 19 21 23 24 25 26 26 27 27 27
19 19 20 20 19 19 20 20 20 20 20 21 21 22 22 22 22 22 22 22 22 21 21 21 21 21 21 21 22 22 22 23 22 21 20 20 19 18 16 16 16 15 13 12 12 12 11 10 10 12 13 10 9 11 14 15 16 16 17 18 19 20 21 21 19 17 15 15 15 14 12 11 12 13 14 15 16 18 20 22 24 25 26 27 27 28
19 19 20 20 19 19 20 20 21 21 21 21 22 23 23 23 23 23 22 22 22 22 22 21 21 21 21 22 23 24 25 26 26 25 24 24 23 22 19 18 18 18 16 14 14 13 12 8 7 7 7 10 13 15 16 16 16 16 18 20 21 21 21 19 17 14 13 13 13 12 11 11 11 11 12 13 14 16 19 21 23 24 24 25 27 27
18 19 20 20 19 19 19 20 21 21 22 23 23 23 23 23 23 22 22 22 21 21 21 21 21 22 23 23 23 23 24 24 25 25 25 25 25 24 22 20 19 18 18 17 16 15 14 11 8 7 5 8 13 16 17 16 15 16 18 20 21 20 18 15 13 12 13 13 12 12 12 12 11 11 12 12 13 16 18 21 23 24 25 26 27 28
18 18 19 20 20 20 20 20 21 22 23 24 24 23 23 22 21 21 21 20 20 19 19 20 20 21 21 21 21 22 22 23 24 24 24 24 24 24 23 21 19 18 18 17 17 17 15 15 15 15 14 12 12 15 16 16 16 16 17 16 16 15 15 15 15 16 16 16 16 15 14 13 13 12 12 12 14 16 19 20 22 23 25 26 27 28
18 18 19 20 21 21 21 21 22 22 23 23 23 23 22 21 20 20 20 19 18 18 18 18 18 19 19 20 20 21 21 22 22 22 22 22 23 23 23 22 21 20 18 17 17 17 17 16 16 17 18 17 17 18 18 18 17 16 15 14 15 17 19 19 19 18 17 17 17 16 16 15 14 14 13 14 15 16 18 19 21 22 24 25 26 26
18 18 20 21 21 21 22 22 22 22 21 22 21 21 21 20 19 19 19 19 18 18 17 17 17 17 18 18 18 19 19 20 20 20 20 20 20 21 22 22 22 21 19 18 17 18 18 18 17 18 18 18 17 17 17 19 19 17 15 15 16 18 19 19 17 15 13 14 14 14 14 14 14 14 14 14 15 16 17 19 21 23 24 25 27 27
18 19 20 21 21 21 21 21 21 21 21 21 20 20 20 20 19 19 19 18 18 18 18 17 16 16 16 17 17 18 18 19 19 18 18 18 18 19 20 21 21 21 20 18 17 16 17 18 18 18 19 18 17 17 17 19 19 18 16 15 15 14 12 14 14 12 11 12 13 13 13 13 13 13 14 14 15 16 17 19 22 24 25 26 27 27
19 20 21 21 21 20 20 20 20 20 21 20 20 20 20 20 19 18 18 18 18 18 18 18 17 17 16 16 16 17 17 18 18 17 17 16 16 17 18 19 20 20 21 20 18 16 16 16 17 18 18 18 17 18 19 19 19 18 17 16 16 15 14 15 16 16 16 16 16 16 14 14 14 14 14 15 16 16 18 20 21 24 26 27 27 28
19 20 20 20 20 19 19 19 19 20 20 19 19 20 20 20 19 18 18 18 19 19 18 18 17 15 14 14 15 16 16 17 17 17 16 15 14 14 15 16 17 19 20 21 21 19 16 15 16 17 17 17 17 19 20 20 19 19 18 17 17 17 19 20 20 19 18 18 18 18 17 16 15 15 15 16 16 17 19 20 21 22 24 26 27 28
19 19 19 20 19 19 19 19 19 19 20 20 19 19 19 19 19 19 18 18 18 18 18 18 16 14 13 14 15 16 16 16 16 16 16 15 15 14 14 14 15 16 18 20 21 22 21 19 18 17 16 16 18 20 21 21 20 19 19 18 17 17 19 20 21 20 18 17 17 18 17 16 16 16 16 16 16 17 18 19 20 22 24 25 27 28
19 19 19 19 19 19 19 19 19 19 19 19 19 19 19 19 19 19 19 18 18 18 18 17 16 14 14 15 15 15 15 15 16 16 16 16 15 14 15 15 15 16 16 18 20 21 23 23 22 20 18 16 16 18 21 21 21 20 20 19 17 17 18 20 20 19 18 17 17 17 17 16 16 16 16 16 16 16 18 19 21 22 24 25 26 28
19 19 19 19 18 18 19 19 19 19 19 19 19 19 19 19 19 19 19 19 19 18 17 17 15 15 15 15 16 16 15 15 15 16 16 17 17 17 16 17 16 16 16 17 18 20 21 23 24 24 23 20 18 18 19 20 20 20 19 18 17 17 18 20 20 19 18 18 18 18 17 17 16 15 14 14 15 16 19 20 22 23 24 25 26 27
19 19 19 19 18 18 18 19 19 18 18 19 19 20 19 19 18 18 18 18 18 18 17 16 15 15 15 15 16 16 16 16 16 16 16 16 17 17 17 18 17 17 17 17 18 18 20 22 23 25 26 25 23 21 20 20 20 19 19 18 18 18 18 19 19 19 18 19 19 19 19 19 17 15 14 14 15 18 20 21 23 24 25 25 26 27
20 19 19 19 18 18 18 18 18 18 18 18 19 19 20 20 19 19 18 18 17 17 17 16 16 15 15 15 16 16 16 15 15 16 16 16 17 17 17 17 17 16 15 14 14 14 15 16 17 20 23 26 27 25 22 20 19 19 18 18 18 18 18 19 19 19 18 18 19 20 20 20 19 17 16 16 17 19 20 21 22 24 26 26 26 27
20 20 20 19 19 18 18 18 18 18 18 18 18 19 19 19 19 19 19 18 17 17 17 17 16 16 15 15 16 16 16 16 15 15 16 17 17 16 16 16 15 13 12 10 9 9 8 7 8 12 16 21 25 27 27 23 19 17 17 17 18 18 18 18 18 18 18 18 18 19 19 19 19 19 18 18 17 17 18 20 22 25 26 26 27 27
Wind_Direction
288 291 294 295 296 296 296 296 297 299 301 305 307 308 308 309 308 308 309 309 309 309 308 308 308 309 310 310 310 310 311 312 313 313 313 314 315 315 315 315 315 315 314 313 312 311 311 311 311 311 310 309 307 305 302 301 305 311 316 320 321 322 324 327 327 326 324 323 321 319 319 321 323 326 329 337 349 1 351 268 246 243 244 249 250 247
290 292 294 295 295 295 294 296 298 301 305 306 307 307 308 308 308 308 309 309 308 307 306 306 307 307 308 309 309 309 310 311 312 312 312 313 313 314 314 314 314 314 314 313 312 311 311 311 311 311 310 309 307 305 302 302 305 310 315 317 317 317 319 321 321 321 321 320 318 317 317 318 320 323 325 328 334 342 339 280 242 237 242 252 255 248
291 293 294 295 295 294 293 296 300 304 305 305 305 305 306 307 307 307 308 307 307 306 305 305 305 306 306 307 307 307 308 309 310 311 311 312 312 313 313 313 313 313 313 313 313 313 312 312 312 312 312 311 309 307 305 306 308 310 312 312 311 311 312 314 315 315 316 315 314 314 314 315 317 320 323 324 325 323 314 296 261 245 246 249 253 253
288 291 293 295 295 293 293 298 302 305 304 304 304 304 305 306 306 306 306 305 305 305 305 306 305 305 305 306 307 307 307 308 309 310 310 311 312 312 313 313 313 313 314 314 313 313 313 313 313 313 313 312 310 308 307 307 306 306 306 305 305 305 306 307 309 310 310 311 310 310 310 311 312 315 318 319 317 311 302 297 290 275 253 243 248 254
286 288 292 294 295 295 296 300 302 303 303 303 303 304 305 305 305 304 304 304 304 305 305 306 306 305 305 306 306 307 306 307 308 309 310 311 311 312 313 312 312 312 313 313 313 313 313 312 312 312 311 310 308 306 305 303 301 300 301 301 301 301 301 302 303 304 304 305 305 305 305 305 306 308 311 313 310 302 297 289 284 279 265 249 247 249
285 288 292 293 294 296 299 300 301 302 303 304 304 305 305 305 304 303 303 303 304 305 305 305 305 305 305 305 305 305 305 306 307 308 309 310 311 311 312 312 312 312 312 312 312 312 311 310 310 309 308 307 305 303 301 299 298 297 297 297 297 296 296 297 297 298 298 299 299 299 299 299 299 300 303 305 304 301 299 289 281 274 267 257 254 251
287 289 291 292 294 296 298 298 299 300 302 304 305 305 305 304 303 302 302 302 303 304 304 305 305 305 305 305 304 304 305 306 307 308 310 311 311 311 312 312 312 312 312 312 312 311 309 309 308 307 306 306 304 301 299 297 295 293 292 292 292 291 291 291 292 292 293 294 294 294 294 293 292 293 295 297 300 301 300 294 283 273 267 269 267 260
287 289 290 292 295 297 298 297 298 299 300 301 303 304 304 304 303 302 302 302 303 304 305 305 306 305 304 304 305 305 306 307 308 309 310 312 312 312 312 311 311 311 311 311 311 310 309 309 307 306 305 304 302 300 298 295 293 290 288 288 287 287 287 287 287 288 289 290 291 291 290 289 288 288 289 291 294 296 296 292 283 273 269 274 276 271
283 287 290 293 295 297 298 298 299 299 299 298 298 299 301 302 303 303 303 303 303 304 305 306 306 305 304 304 305 305 305 305 305 305 307 308 309 310 310 310 310 310 310 311 311 310 309 309 307 306 304 302 301 299 296 294 291 289 286 285 284 283 282 282 283 284 285 287 288 289 288 287 286 285 285 287 289 289 287 284 280 276 274 274 276 276
278 285 291 294 296 297 298 298 299 300 299 295 292 291 293 296 300 303 304 304 305 305 305 305 304 304 305 305 305 305 304 302 301 300 301 302 304 305 306 306 306 307 308 309 310 309 309 309 308 306 304 302 300 297 294 291 289 287 285 283 281 280 279 278 278 279 281 283 285 286 286 285 285 284 284 285 286 285 280 277 276 277 278 277 276 276
282 289 294 297 299 300 299 297 297 298 298 295 293 291 290 292 296 301 303 304 305 306 305 303 302 302 303 304 304 304 302 301 300 300 301 302 302 302 302 303 303 305 306 308 309 310 311 311 311 309 306 302 299 295 292 289 286 284 283 281 279 277 276 275 274 273 274 277 280 281 281 282 283 283 282 282 282 282 280 276 274 275 278 279 279 279
291 297 300 302 303 303 301 299 298 299 299 298 297 296 295 295 296 298 299 300 302 303 304 302 301 299 299 300 301 301 300 298 298 299 302 305 306 307 306 306 306 307 309 310 311 313 314 314 314 312 308 304 298 293 289 285 282 281 279 278 276 274 272 271 269 268 269 270 272 274 274 276 278 278 277 275 275 275 276 275 273 272 275 277 279 280
300 304 306 305 304 302 301 302 303 303 302 300 299 297 297 298 298 296 294 294 296 298 300 300 300 298 297 297 297 297 297 296 296 297 300 303 305 308 308 308 308 309 311 311 312 313 314 314 313 311 309 305 299 291 284 278 275 274 274 273 272 271 270 269 267 266 265 265 265 266 266 268 270 271 270 268 266 266 268 269 270 270 272 274 276 277
307 307 306 304 301 301 302 304 304 303 302 300 298 295 295 296 296 294 292 291 292 294 296 296 296 296 297 296 295 295 294 294 295 296 297 298 302 305 307 307 306 307 308 308 308 309 311 311 310 309 309 307 302 292 281 271 267 267 269 270 270 269 269 267 265 263 262 261 260 259 258 257 259 261 263 261 259 258 259 261 264 267 269 271 274 275
307 305 303 300 300 302 303 304 303 301 300 299 297 295 295 294 293 292 291 290 292 293 295 294 294 294 295 294 294 294 295 294 292 292 294 296 300 303 305 305 304 304 304 304 304 305 307 306 306 307 309 309 305 297 286 277 272 270 269 269 268 268 268 267 265 262 260 258 256 254 252 250 250 251 255 256 255 253 253 255 258 262 265 268 271 274
301 300 298 298 300 301 302 302 301 299 298 298 297 295 293 291 290 289 288 288 289 291 292 293 293 294 295 296 296 297 297 293 290 290 294 295 297 300 302 302 302 301 302 301 301 301 303 303 304 305 307 306 302 295 288 281 276 273 270 269 269 270 270 269 266 262 260 259 257 254 252 250 249 249 250 250 250 249 249 251 254 258 262 265 269 272
297 297 297 298 299 300 302 301 299 298 297 297 295 292 289 285 284 284 283 283 285 287 287 288 289 292 296 298 299 299 297 293 291 292 293 293 295 297 300 300 299 299 299 299 298 298 299 299 300 301 301 299 296 290 285 280 275 272 270 270 271 271 271 269 265 262 259 259 258 255 253 250 249 248 247 246 244 244 245 247 250 254 258 262 266 269
296 296 297 297 298 299 301 300 299 298 297 295 294 291 286 281 278 277 277 278 279 281 282 283 282 281 287 294 296 297 295 290 289 291 293 293 294 297 299 298 296 295 295 294 294 295 295 296 297 297 295 292 288 285 282 279 276 274 272 272 272 272 271 269 266 263 260 258 257 256 253 250 249 248 246 243 242 241 242 243 246 250 255 260 263 266
295 296 296 296 297 298 299 299 298 298 296 295 293 290 287 282 278 275 273 274 275 275 276 276 277 278 279 283 288 292 293 292 294 296 297 296 297 298 298 297 294 291 289 289 290 292 293 294 295 294 291 287 285 282 281 278 276 274 273 272 271 270 270 269 268 265 262 260 258 256 253 250 248 246 244 243 242 241 240 241 243 247 251 257 261 263
294 293 292 294 296 297 297 297 297 297 294 292 290 287 284 281 279 276 272 273 273 272 272 271 272 275 277 280 284 290 298 307 310 307 301 298 297 297 297 295 292 289 287 286 288 290 292 294 295 295 293 290 287 284 282 280 277 275 273 272 271 270 269 269 268 266 263 260 257 255 252 248 245 243 242 241 240 240 240 240 241 243 248 253 257 260
290 289 289 290 292 294 296 297 297 295 292 289 285 282 281 280 279 277 274 274 274 273 272 270 271 274 278 282 288 297 306 313 312 306 301 297 295 294 295 293 290 287 285 286 288 290 293 295 296 296 295 293 290 287 284 281 279 276 274 272 271 269 268 267 266 264 261 258 256 253 250 246 244 242 240 239 238 238 238 238 239 241 244 249 253 257
283 285 287 288 289 292 295 295 294 293 291 286 281 278 277 278 279 280 279 278 277 275 275 274 278 284 291 295 298 300 302 302 300 298 298 296 293 292 295 295 292 288 286 287 290 293 294 295 294 294 293 291 288 285 283 282 280 278 275 273 271 269 267 265 263 261 259 256 253 250 247 245 243 241 239 238 237 236 235 235 236 238 240 244 248 252
279 281 285 289 291 291 292 292 292 293 292 286 280 277 278 278 279 280 282 285 287 290 293 295 296 296 295 295 295 295 296 295 294 294 294 289 289 292 296 297 294 289 286 288 292 295 295 293 292 292 292 290 288 287 286 285 282 279 276 273 271 269 267 264 262 259 257 253 250 247 245 243 241 240 238 237 236 235 233 233 233 234 236 240 243 248
285 288 292 294 296 296 295 294 295 296 298 299 298 297 295 294 294 296 300 302 302 300 299 297 296 294 292 292 292 293 293 293 293 291 287 283 285 289 293 296 294 290 288 290 293 296 296 292 290 290 291 292 292 292 291 288 285 281 277 274 271 269 266 263 260 257 254 251 248 246 244 242 240 239 237 236 234 233 232 232 231 232 233 236 239 243
295 296 298 298 299 300 300 301 302 304 306 308 308 309 308 306 303 301 300 299 297 295 294 293 292 291 293 295 294 293 292 291 288 283 276 278 282 286 290 292 292 290 290 293 295 296 295 292 291 291 292 294 297 298 296 292 286 281 277 274 271 268 265 262 259 256 255 253 251 249 246 244 242 240 238 235 233 232 231 231 230 230 231 233 236 239
297 297 297 298 299 301 302 304 305 306 307 308 308 308 308 306 304 300 297 294 294 296 298 297 294 293 295 295 293 291 291 290 284 275 268 273 280 285 288 291 291 291 292 294 296 296 294 292 292 292 294 297 301 303 301 297 290 283 279 276 273 270 266 263 260 257 254 252 250 249 247 245 243 242 239 236 232 230 229 230 230 230 231 232 234 237
297 297 297 298 300 302 304 306 307 308 308 308 308 308 308 307 305 301 298 302 309 313 309 302 294 292 293 291 288 288 291 290 284 276 270 271 276 282 286 289 291 292 293 295 296 295 293 290 289 291 294 298 303 306 307 305 298 291 285 282 278 273 268 263 258 254 251 249 247 245 242 241 240 240 239 236 233 230 228 228 229 230 231 232 234 236
300 299 300 301 302 303 305 307 308 309 310 310 309 309 309 309 308 307 307 313 317 313 301 292 287 288 289 289 289 290 291 288 284 279 274 270 271 277 282 288 290 292 296 298 299 297 292 286 286 289 293 299 305 309 313 311 303 295 291 288 282 275 268 261 256 252 249 246 244 241 238 236 235 235 236 235 232 230 228 228 228 229 230 232 234 236
311 310 309 309 309 309 308 309 310 310 311 310 310 311 311 311 310 308 307 309 307 301 292 287 285 286 287 291 292 292 290 286 283 279 273 266 266 273 281 288 292 296 302 305 305 302 295 287 286 289 294 301 305 307 306 304 300 297 298 298 295 287 277 266 258 252 248 245 243 240 237 235 233 232 231 231 230 229 227 226 226 227 229 230 232 235
324 324 323 322 321 319 316 314 313 312 311 311 311 311 311 308 305 302 300 300 297 291 287 286 286 287 289 292 293 291 288 286 288 287 277 266 266 276 286 291 294 298 304 309 310 306 301 295 293 293 297 302 302 300 299 299 300 302 306 309 311 308 300 285 269 258 251 247 244 242 239 237 235 233 231 229 228 226 225 224 224 225 226 228 230 233
326 325 323 323 323 322 319 317 314 313 312 312 311 310 308 305 301 298 296 293 290 286 285 285 285 286 287 289 289 286 286 288 291 295 294 283 279 283 288 290 291 292 294 299 305 310 307 305 304 304 305 304 301 299 299 300 303 307 311 316 318 320 319 312 295 273 257 250 247 247 245 243 240 238 235 231 228 225 223 222 222 223 224 226 229 230
322 321 319 319 320 320 318 316 314 312 311 311 311 310 308 305 301 297 294 290 288 285 284 284 284 284 283 280 277 276 278 282 284 286 287 283 280 280 283 283 284 284 282 279 277 281 298 306 307 306 306 303 301 300 301 303 305 308 312 314 315 318 322 320 311 293 275 261 253 249 246 243 242 240 237 234 229 226 223 221 220 221 222 225 226 228
319 318 318 318 318 318 316 315 313 312 311 310 310 309 309 306 303 298 295 291 288 286 284 284 284 283 281 277 274 273 275 278 280 280 278 275 274 276 278 277 277 278 277 270 265 265 272 281 295 301 302 301 300 299 301 303 305 308 310 310 310 313 317 317 312 305 297 286 273 258 246 238 235 234 234 233 230 227 224 222 220 220 221 223 225 226
319 319 318 318 318 317 317 316 314 312 311 310 309 309 308 307 304 300 297 293 290 287 284 281 280 280 281 279 276 274 275 277 279 278 274 270 269 272 274 274 273 274 275 272 267 266 270 277 285 294 298 299 299 298 298 300 303 306 308 308 307 308 310 311 309 306 304 300 292 279 261 245 235 231 230 230 228 226 224 222 221 220 220 222 223 223
320 319 319 319 318 318 317 316 315 314 312 310 309 309 308 307 305 302 299 295 292 288 285 281 278 276 276 277 278 278 278 279 279 278 273 266 265 268 272 270 270 271 272 273 272 272 275 279 282 287 293 297 297 297 296 297 300 304 305 304 303 303 304 305 305 304 303 300 295 288 276 258 244 235 231 229 227 225 224 223 221 220 220 222 223 223
318 318 319 319 319 319 318 317 316 315 313 312 311 310 310 308 307 304 301 298 295 291 288 284 281 278 275 273 273 275 277 280 280 278 273 265 263 265 268 268 267 267 267 269 270 271 275 280 283 285 287 291 294 295 295 297 300 302 301 301 301 301 302 303 304 303 302 299 295 289 280 266 251 240 235 233 230 228 226 225 223 222 221 222 224 225
317 318 319 319 319 319 319 318 317 316 315 313 313 312 311 310 308 306 303 301 298 295 292 289 286 282 279 276 274 274 276 279 280 279 275 270 265 262 262 264 265 264 262 263 266 269 273 278 282 284 284 282 283 289 294 299 302 301 300 300 300 301 302 304 306 306 303 300 297 293 284 272 257 244 237 234 233 232 230 229 227 225 224 224 225 226
317 318 318 319 319 319 319 319 319 317 315 314 313 312 311 310 308 307 304 302 300 298 295 291 288 286 284 281 279 278 279 280 281 280 278 274 269 263 259 261 263 262 257 257 259 263 267 272 278 280 280 278 278 281 287 294 299 300 300 301 301 301 301 305 308 310 306 302 298 293 287 279 269 257 244 235 230 229 230 230 230 228 226 225 226 227
316 315 316 317 318 318 318 318 317 316 315 314 312 311 310 310 309 307 306 304 301 299 296 292 290 288 288 287 285 284 282 281 281 281 279 276 271 266 261 260 260 259 256 254 252 253 256 259 264 270 276 280 281 282 285 288 291 295 300 302 302 300 301 304 306 305 300 295 289 283 279 276 272 265 254 240 229 224 224 224 225 225 223 222 223 225
314 314 314 316 317 316 315 315 315 315 315 315 314 312 312 311 311 310 308 306 303 301 298 296 293 291 290 289 287 286 284 284 283 283 281 278 274 269 264 261 259 259 257 253 249 246 246 251 256 261 266 271 278 282 285 285 285 290 296 299 299 298 297 297 295 293 290 286 281 276 273 272 269 263 256 245 234 225 221 219 219 219 219 216 216 217
315 314 314 315 316 316 315 315 316 316 317 316 315 315 314 314 313 313 312 310 307 305 302 300 297 294 292 290 288 288 287 288 288 287 285 283 280 274 268 263 260 259 257 253 249 245 243 245 250 256 260 265 271 276 279 279 279 281 284 285 286 289 292 292 290 288 287 285 283 280 276 273 268 263 257 250 241 231 223 219 217 217 217 215 213 211
314 314 314 315 315 314 315 317 319 320 320 319 318 316 315 315 315 315 314 313 311 309 307 304 301 298 297 294 292 291 291 291 292 292 290 288 284 279 272 266 262 258 256 253 250 248 246 246 248 252 255 259 265 271 274 275 276 275 273 273 279 287 291 289 286 286 286 286 286 284 279 272 268 265 261 257 248 238 227 221 218 216 215 214 214 213
312 312 313 314 314 315 317 320 321 323 323 322 320 318 317 318 318 317 316 314 312 311 310 308 305 301 299 297 297 296 296 297 297 296 293 291 287 282 277 271 266 261 257 253 251 250 249 249 248 249 253 256 259 264 269 273 274 272 268 266 270 277 281 282 284 285 283 280 277 275 272 269 268 268 267 265 258 247 234 225 220 217 216 215 214 214
311 312 314 315 317 319 321 322 323 324 324 322 320 319 319 320 321 320 318 316 314 313 313 311 309 305 301 299 299 300 300 302 302 301 297 295 291 285 279 275 271 267 261 254 250 251 252 252 250 250 252 252 254 258 263 267 270 269 266 262 259 258 260 269 277 280 279 275 272 269 267 267 270 272 272 268 262 252 239 230 222 218 217 216 216 215
312 314 316 318 320 322 323 323 324 324 324 322 321 320 321 322 322 322 321 319 317 316 315 313 312 309 305 303 303 304 305 305 306 305 304 303 298 289 282 277 273 270 266 260 256 253 253 253 254 255 254 252 251 253 257 261 264 266 265 261 257 255 257 263 267 270 270 270 270 268 267 268 270 272 270 266 259 250 241 232 224 219 216 215 215 216
316 317 318 320 321 323 323 324 325 325 325 324 323 322 322 323 324 323 323 321 319 317 315 314 312 308 305 305 306 307 307 308 308 308 307 307 305 300 293 286 281 275 270 266 262 259 256 255 256 258 257 255 253 252 253 254 258 261 262 260 258 258 260 261 261 261 261 263 265 266 267 266 265 265 263 262 258 251 243 233 225 220 215 213 213 214
318 318 318 319 321 322 324 325 327 327 326 325 324 323 324 325 326 325 324 324 322 320 317 316 312 307 303 304 305 305 305 306 307 308 308 308 307 305 302 298 292 286 278 273 268 265 261 259 257 255 253 254 255 255 253 251 251 254 256 257 257 257 258 258 258 258 257 257 259 261 262 260 258 257 258 260 260 255 247 237 229 223 218 215 213 213
319 318 318 319 321 322 324 326 327 327 327 325 325 324 325 326 327 326 325 324 324 322 320 318 314 309 305 304 303 303 302 302 303 305 307 308 309 309 308 306 302 296 290 283 276 271 267 264 260 255 249 247 249 253 254 252 250 249 250 252 252 252 254 256 258 258 256 255 254 254 253 251 249 251 256 260 259 253 245 238 231 225 221 217 214 212
319 318 319 320 321 323 324 325 326 327 326 325 325 325 325 326 327 326 325 324 323 323 321 318 314 311 308 306 304 304 302 301 301 303 305 308 310 311 311 311 308 304 299 293 287 281 276 272 266 258 250 243 242 246 251 252 250 248 248 247 247 248 252 255 257 257 255 253 252 250 248 245 245 247 252 255 254 249 243 237 231 226 222 219 216 214
320 320 320 321 322 322 323 325 326 326 325 325 324 324 324 325 326 326 325 324 323 323 321 318 315 312 309 307 306 305 304 303 303 303 305 307 310 311 311 311 310 307 304 299 294 289 285 279 271 263 254 244 239 238 242 247 249 248 246 244 243 244 247 251 254 254 252 251 250 248 244 243 243 244 245 247 248 246 243 238 233 228 224 221 218 215
321 321 322 322 322 322 323 325 326 326 325 325 324 323 323 325 326 326 326 326 325 324 321 319 316 312 309 307 307 306 306 305 304 303 304 306 308 309 308 308 307 306 305 304 302 301 297 290 282 273 262 247 239 234 233 237 241 243 244 243 242 241 242 246 250 251 250 248 246 244 241 239 239 238 238 239 241 241 240 237 233 229 224 221 219 217